CAPE
0 0 0 0 0 0 0 0 0 0 0 0 0 0 0 0 0 0 0 0 0 0 0 3 2 1 1
0 0 0 0 0 0 0 0 0 0 0 0 0 0 0 0 0 0 0 0 0 0 0 1 1 1 0
0 0 0 0 0 0 0 0 0 0 0 0 0 0 0 0 0 0 0 0 0 0 0 0 0 0 0
0 0 0 0 0 0 0 0 0 0 0 0 0 0 0 0 0 0 0 0 0 0 0 0 0 0 0
0 1 0 0 0 0 0 0 0 0 0 0 0 0 0 0 0 0 0 0 0 0 0 0 0 0 0
0 0 0 0 0 0 0 0 0 0 0 0 0 0 0 0 0 0 0 0 0 0 0 0 0 0 0
2 0 0 0 0 0 0 0 0 0 0 0 0 0 0 0 0 0 0 0 0 0 1 0 0 0 0
0 0 0 0 0 0 0 0 0 0 0 0 0 0 0 0 0 0 0 0 0 0 2 1 0 0 0
0 0 0 0 1 0 0 0 0 0 0 0 0 0 0 0 0 0 0 0 0 0 2 0 1 0 0
0 0 0 0 0 0 0 0 0 0 0 0 0 0 0 0 0 0 0 0 0 0 0 2 0 0 0
0 0 0 0 0 0 0 0 0 0 0 0 0 0 0 0 0 0 0 0 0 0 1 5 1 0 0
0 0 0 0 0 0 0 0 0 0 0 0 0 0 0 0 0 0 0 0 0 0 0 0 0 3 3
0 0 0 0 0 0 0 0 0 0 0 0 0 0 0 0 0 0 0 0 0 0 0 0 0 0 0
1 1 0 0 0 0 0 0 0 0 0 0 0 0 0 0 0 0 0 0 0 0 0 0 0 0 0
0 0 0 0 0 0 0 0 0 0 0 0 1 1 1 0 0 0 0 0 0 0 0 0 0 0 0
0 0 0 0 0 0 0 0 0 0 0 0 0 0 0 0 0 0 0 0 0 0 0 0 0 0 0
0 0 0 0 0 0 0 0 0 0 0 0 0 0 0 0 0 1 0 0 0 0 0 0 0 0 0
CIN
-0 -0 -0 -0 -0 -0 -0 -0 -0 -0 -0 -0 -0 -0 -0 -0 -0 -0 -0 -0 -0 -0 -0 -0 -0 -0 -0
-0 -0 -0 -0 -0 -0 -0 -0 -0 -0 -0 -0 -0 -0 -0 -0 -0 -0 -0 -0 -0 -0 -0 -0 -0 -0 -0
-0 -0 -0 -0 -0 -0 -0 -0 -0 -0 -0 -0 -0 -0 -0 -0 -0 -0 -0 -0 -0 -0 -0 -0 -0 -0 -0
-0 -0 -0 -0 -0 -0 -0 -0 -0 -0 -0 -0 -0 -0 -0 -0 -0 -0 -0 -0 -0 -0 -0 -0 -0 -0 -0
-0 -0 -0 -0 -0 -0 -0 -0 -0 -0 -0 -0 -0 -0 -0 -0 -0 -0 -0 -0 -0 -0 -0 -0 -0 -0 -0
-0 -0 -0 -0 -0 -0 -0 -0 -0 -0 -0 -0 -0 -0 -0 -0 -0 -0 -0 -0 -0 -0 -0 -0 -0 -0 -0
-1 -1 -0 -0 -0 -0 -0 -0 -0 -0 -0 -0 -0 -0 -0 -0 -0 -0 -0 -0 -0 -0 -0 -0 -0 -0 -0
-0 -0 -0 -0 -0 -0 -0 -0 -0 -0 -0 -0 -0 -0 -0 -0 -0 -0 -0 -0 -0 -0 -0 -0 -0 -0 -0
-0 -0 -0 -0 -0 -0 -0 -0 -0 -0 -0 -0 -0 -0 -0 -0 -0 -0 -0 -0 -0 -0 -0 -0 -0 -0 -0
-0 -0 -0 -0 -0 -0 -0 -0 -0 -0 -0 -0 -0 -0 -0 -0 -0 -0 -0 -0 -0 -0 -0 -0 -0 -0 -0
-2 -0 -0 -0 -0 -0 -0 -0 -0 -0 -0 -0 -0 -0 -0 -0 -0 -0 -0 -0 -0 -0 -0 -0 -0 -0 -0
-0 -0 -0 -0 -0 -0 -0 -0 -0 -0 -0 -0 -0 -0 -0 -0 -0 -0 -0 -0 -0 -0 -0 -0 -0 -0 -0
-1 -0 -0 -0 -0 -0 -0 -0 -0 -0 -0 -0 -0 -0 -0 -0 -0 -0 -0 -0 -0 -0 -0 -0 -0 -0 -0
-2 -6 -0 -0 -0 -0 -0 -0 -0 -0 -0 -0 -0 -0 -0 -0 -0 -0 -0 -0 -0 -0 -0 -0 -0 -0 -0
-13 -0 -0 -0 -0 -0 -0 -0 -0 -0 -0 -0 -0 -0 -0 -0 -0 -0 -0 -0 -0 -0 -0 -0 -0 -0 -0
-0 -2 -0 -0 -0 -0 -0 -0 -0 -0 -0 -0 -0 -0 -0 -0 -0 -0 -0 -0 -0 -0 -0 -0 -0 -0 -0
-0 -0 -18 -0 -0 -0 -0 -0 -0 -0 -0 -0 -0 -0 -0 -0 -0 -0 -0 -0 -0 -0 -0 -0 -0 -0 -0
Wind_Speed
31 30 30 30 30 28 28 30 30 30 28 28 27 24 23 23 23 23 23 23 23 23 22 21 20 18 17
37 34 32 32 33 32 31 28 29 29 29 28 27 25 24 23 21 22 22 21 21 21 21 20 19 18 18
40 35 34 32 33 32 32 31 29 27 26 27 26 24 21 22 20 20 21 21 20 19 19 19 19 18 17
38 38 36 33 32 35 36 31 31 28 28 27 26 24 22 21 21 19 19 19 19 18 18 17 17 17 16
40 39 38 36 37 34 36 34 32 30 30 29 26 24 22 20 21 19 17 17 17 16 17 17 17 17 17
40 41 41 38 36 37 37 37 38 26 27 28 24 24 24 23 22 20 19 18 17 16 16 17 18 18 18
41 40 40 37 37 36 35 36 35 31 29 31 28 30 28 26 25 24 20 19 19 18 17 18 19 20 19
37 38 37 37 35 35 34 33 32 31 27 33 27 29 27 26 26 25 23 22 20 18 18 20 20 20 20
35 35 35 35 33 32 35 35 36 33 27 30 29 29 28 27 26 26 25 23 22 21 20 19 20 21 21
37 36 35 35 33 31 31 34 33 33 26 27 27 26 28 24 24 24 23 23 21 22 22 21 22 22 23
37 37 36 35 33 32 30 31 33 33 26 25 28 27 28 28 25 22 21 22 23 23 24 23 23 23 25
37 36 35 35 32 28 28 28 29 31 28 26 29 28 29 30 29 25 24 24 24 25 24 24 25 26 25
36 35 33 31 28 29 28 27 27 27 27 26 29 28 27 29 29 27 25 25 24 25 26 26 26 26 28
35 33 31 28 28 28 29 28 28 29 26 25 25 26 28 28 27 28 26 27 24 26 27 26 25 25 25
34 33 31 29 29 28 29 28 28 27 27 25 23 24 26 26 28 28 28 28 28 27 27 29 27 25 26
34 33 33 31 30 28 27 28 29 28 27 25 24 24 25 27 25 28 27 29 28 26 25 27 30 27 27
35 35 34 32 30 28 28 28 29 28 27 25 23 24 27 28 25 20 26 26 23 23 23 23 25 24 22
Wind_Direction
310 311 310 309 310 311 312 311 310 309 309 308 309 312 314 316 318 318 319 321 323 325 327 329 333 338 344
306 306 306 307 306 306 306 309 308 310 309 308 307 306 307 310 313 316 317 319 320 321 323 324 326 329 332
302 304 304 306 305 304 304 305 305 307 308 309 308 308 307 308 309 310 311 313 317 317 317 318 321 324 328
300 300 301 303 303 301 300 302 302 303 303 304 304 304 304 305 306 308 310 308 310 312 313 314 315 317 322
297 298 298 298 297 299 297 299 300 299 299 299 300 301 300 302 303 305 306 307 308 308 308 308 308 308 309
296 294 295 296 297 295 295 294 294 301 298 298 298 297 298 299 298 299 298 299 301 302 303 301 299 299 302
293 293 294 295 295 294 293 291 291 295 296 293 294 292 294 295 294 294 292 292 293 294 296 297 295 296 298
297 296 295 294 293 292 292 293 293 293 293 290 295 293 294 293 293 292 290 288 288 288 290 293 295 296 298
300 299 299 297 295 292 289 287 287 289 290 289 292 293 294 293 292 292 289 286 284 284 284 289 292 294 297
299 298 297 296 294 290 290 286 287 288 291 287 291 293 292 297 297 293 290 287 284 284 283 284 287 289 292
298 297 296 295 295 292 288 285 284 284 290 288 288 288 289 290 295 297 293 288 286 285 284 282 284 286 289
298 298 298 298 297 299 296 292 289 286 290 286 287 285 285 286 285 289 289 288 286 284 284 285 287 286 288
300 300 301 301 301 299 299 298 295 294 290 287 285 284 284 284 285 285 285 286 286 285 284 284 286 287 288
302 302 303 301 298 300 298 296 295 294 296 292 288 284 283 283 283 283 283 283 289 286 284 286 289 289 290
301 301 300 300 298 299 296 294 292 294 295 297 295 290 285 284 283 283 283 283 283 284 285 283 287 288 288
300 299 297 296 296 298 297 294 291 290 291 294 296 294 291 287 283 283 283 283 284 284 284 284 284 288 289
297 295 294 293 291 293 295 294 292 290 289 290 292 291 288 286 291 286 285 286 287 284 284 285 288 292 298